Stündliche Wetter Bolshie Stayki

Heute, 17 Januar, Sonntag

Zeit Temperatur Niederschläge Wind Luftdruck Luftfeuchtigkeit
00:00 -19°C° 0 mm 2 m/S 744 mmHg 93%
01:00 -19°C° 0 mm 2 m/S 744 mmHg 94%
02:00 -20°C° 0 mm 2 m/S 744 mmHg 94%
03:00 -20°C° 0 mm 2 m/S 744 mmHg 95%
04:00 -21°C° 0 mm 2 m/S 744 mmHg 96%
05:00 -21°C° 0 mm 2 m/S 744 mmHg 96%
06:00 -23°C° 0 mm 2 m/S 744 mmHg 96%
07:00 -23°C° 0 mm 2 m/S 744 mmHg 96%
08:00 -24°C° 0 mm 2 m/S 745 mmHg 96%
09:00 -23°C° 0 mm 2 m/S 745 mmHg 94%
10:00 -21°C° 0 mm 2 m/S 745 mmHg 92%
11:00 -18°C° 0 mm 1 m/S 746 mmHg 89%
12:00 -17°C° 0 mm 1 m/S 746 mmHg 89%
13:00 -16°C° 0 mm 1 m/S 746 mmHg 88%
14:00 -16°C° 0 mm 1 m/S 746 mmHg 87%
15:00 -17°C° 0 mm 1 m/S 746 mmHg 89%
16:00 -18°C° 0 mm 1 m/S 746 mmHg 91%
17:00 -19°C° 0 mm 1 m/S 746 mmHg 92%
18:00 -19°C° 0 mm 1 m/S 746 mmHg 93%
19:00 -19°C° 0 mm 1 m/S 747 mmHg 93%
20:00 -20°C° 0 mm 1 m/S 747 mmHg 94%
21:00 -19°C° 0 mm 1 m/S 747 mmHg 94%
22:00 -19°C° 0 mm 1 m/S 747 mmHg 95%
23:00 -19°C° 0 mm 1 m/S 747 mmHg 96%

Morgen, 18 Januar, Montag

Zeit Temperatur Niederschläge Wind Luftdruck Luftfeuchtigkeit
00:00 -19°C° 0 mm 1 m/S 747 mmHg 96%
01:00 -19°C° 0 mm 1 m/S 747 mmHg 97%
02:00 -19°C° 0 mm 1 m/S 747 mmHg 98%
03:00 -19°C° 0 mm 1 m/S 747 mmHg 98%
04:00 -19°C° 0 mm 1 m/S 746 mmHg 98%
05:00 -19°C° 0 mm 1 m/S 746 mmHg 98%
06:00 -18°C° 0 mm 1 m/S 746 mmHg 98%
07:00 -18°C° 0 mm 1 m/S 747 mmHg 97%
08:00 -17°C° 0 mm 1 m/S 747 mmHg 97%
09:00 -16°C° 0 mm 1 m/S 747 mmHg 96%
10:00 -15°C° 0 mm 1 m/S 747 mmHg 95%
11:00 -14°C° 0 mm 1 m/S 747 mmHg 93%
12:00 -13°C° 0 mm 1 m/S 747 mmHg 93%
13:00 -12°C° 0 mm 1 m/S 747 mmHg 93%
14:00 -11°C° 0 mm 1 m/S 746 mmHg 93%
15:00 -12°C° 0 mm 1 m/S 746 mmHg 94%
16:00 -12°C° 0 mm 1 m/S 746 mmHg 95%
17:00 -12°C° 0 mm 1 m/S 746 mmHg 96%
18:00 -12°C° 0.1 mm 1 m/S 746 mmHg 96%
19:00 -12°C° 0.1 mm 1 m/S 746 mmHg 96%
20:00 -13°C° 0.1 mm 1 m/S 746 mmHg 96%
21:00 -13°C° 0 mm 1 m/S 746 mmHg 96%
22:00 -13°C° 0 mm 1 m/S 746 mmHg 96%
23:00 -13°C° 0 mm 1 m/S 746 mmHg 97%

übermorgen, 19 Januar, Dienstag

Zeit Temperatur Niederschläge Wind Luftdruck Luftfeuchtigkeit
00:00 -13°C° 0.1 mm 1 m/S 746 mmHg 96%
01:00 -13°C° 0.1 mm 1 m/S 746 mmHg 96%
02:00 -12°C° 0.1 mm 1 m/S 746 mmHg 96%
03:00 -13°C° 0 mm 1 m/S 746 mmHg 96%
04:00 -13°C° 0 mm 1 m/S 745 mmHg 96%
05:00 -13°C° 0 mm 1 m/S 745 mmHg 96%
06:00 -14°C° 0 mm 1 m/S 745 mmHg 96%
07:00 -14°C° 0 mm 1 m/S 745 mmHg 97%
08:00 -14°C° 0 mm 1 m/S 746 mmHg 97%
09:00 -13°C° 0 mm 1 m/S 746 mmHg 96%
10:00 -12°C° 0 mm 1 m/S 746 mmHg 95%
11:00 -12°C° 0 mm 0 m/S 746 mmHg 94%
12:00 -11°C° 0 mm 0 m/S 745 mmHg 93%
13:00 -11°C° 0 mm 0 m/S 745 mmHg 93%
14:00 -10°C° 0 mm 0 m/S 745 mmHg 92%
15:00 -12°C° 0 mm 0 m/S 745 mmHg 94%
16:00 -13°C° 0 mm 1 m/S 745 mmHg 95%
17:00 -14°C° 0 mm 1 m/S 745 mmHg 96%
18:00 -15°C° 0 mm 1 m/S 746 mmHg 96%
19:00 -15°C° 0 mm 1 m/S 746 mmHg 97%
20:00 -15°C° 0 mm 1 m/S 746 mmHg 97%
21:00 -16°C° 0 mm 1 m/S 746 mmHg 97%
22:00 -16°C° 0 mm 1 m/S 746 mmHg 96%
23:00 -16°C° 0 mm 1 m/S 746 mmHg 96%

20 Januar, Mittwoch

Zeit Temperatur Niederschläge Wind Luftdruck Luftfeuchtigkeit
00:00 -16°C° 0 mm 1 m/S 746 mmHg 96%
01:00 -18°C° 0 mm 2 m/S 746 mmHg 96%
02:00 -19°C° 0 mm 2 m/S 747 mmHg 96%
03:00 -19°C° 0 mm 2 m/S 747 mmHg 96%
04:00 -19°C° 0 mm 2 m/S 746 mmHg 96%
05:00 -19°C° 0 mm 2 m/S 746 mmHg 96%
06:00 -19°C° 0 mm 2 m/S 746 mmHg 96%
07:00 -19°C° 0 mm 2 m/S 746 mmHg 96%
08:00 -19°C° 0 mm 2 m/S 746 mmHg 96%
09:00 -19°C° 0 mm 3 m/S 747 mmHg 94%
10:00 -17°C° 0 mm 3 m/S 747 mmHg 93%
11:00 -16°C° 0 mm 3 m/S 747 mmHg 91%
12:00 -15°C° 0 mm 3 m/S 747 mmHg 91%
13:00 -15°C° 0 mm 3 m/S 746 mmHg 90%
14:00 -14°C° 0 mm 3 m/S 746 mmHg 90%
15:00 -16°C° 0 mm 4 m/S 746 mmHg 91%
16:00 -16°C° 0 mm 4 m/S 746 mmHg 91%
17:00 -17°C° 0 mm 4 m/S 746 mmHg 92%
18:00 -17°C° 0 mm 4 m/S 745 mmHg 92%
19:00 -17°C° 0 mm 4 m/S 745 mmHg 92%
20:00 -17°C° 0 mm 4 m/S 745 mmHg 92%
21:00 -16°C° 0 mm 4 m/S 745 mmHg 92%
22:00 -17°C° 0 mm 5 m/S 744 mmHg 92%
23:00 -17°C° 0 mm 5 m/S 744 mmHg 93%

21 Januar, Donnerstag

Zeit Temperatur Niederschläge Wind Luftdruck Luftfeuchtigkeit
00:00 -15°C° 0.1 mm 5 m/S 743 mmHg 93%
01:00 -14°C° 0.1 mm 5 m/S 743 mmHg 93%
02:00 -14°C° 0.1 mm 5 m/S 743 mmHg 93%
03:00 -13°C° 0.2 mm 5 m/S 742 mmHg 93%
04:00 -13°C° 0.2 mm 5 m/S 742 mmHg 93%
05:00 -12°C° 0.2 mm 5 m/S 741 mmHg 93%
06:00 -12°C° 0.2 mm 5 m/S 741 mmHg 93%
07:00 -11°C° 0.2 mm 5 m/S 741 mmHg 93%
08:00 -11°C° 0.2 mm 5 m/S 741 mmHg 93%
09:00 -10°C° 0.1 mm 5 m/S 741 mmHg 93%
10:00 -8°C° 0.1 mm 4 m/S 741 mmHg 93%
11:00 -8°C° 0.1 mm 4 m/S 741 mmHg 93%
12:00 -7°C° 0.1 mm 4 m/S 741 mmHg 93%
13:00 -5°C° 0.1 mm 4 m/S 741 mmHg 94%
14:00 -4°C° 0.1 mm 4 m/S 740 mmHg 94%
15:00 -4°C° 0 mm 4 m/S 740 mmHg 94%
16:00 -3°C° 0 mm 4 m/S 740 mmHg 95%
17:00 -2°C° 0 mm 4 m/S 740 mmHg 95%
18:00 -2°C° 0 mm 4 m/S 740 mmHg 95%
19:00 -2°C° 0 mm 5 m/S 740 mmHg 95%
20:00 -2°C° 0 mm 5 m/S 739 mmHg 95%
21:00 -2°C° 0 mm 5 m/S 739 mmHg 94%
22:00 -2°C° 0 mm 4 m/S 739 mmHg 94%
23:00 -1°C° 0 mm 4 m/S 739 mmHg 94%

22 Januar, Freitag

Zeit Temperatur Niederschläge Wind Luftdruck Luftfeuchtigkeit
00:00 -2°C° 0 mm 4 m/S 739 mmHg 94%
01:00 -3°C° 0 mm 4 m/S 738 mmHg 94%
02:00 -3°C° 0 mm 4 m/S 738 mmHg 94%
03:00 -3°C° 0 mm 4 m/S 738 mmHg 94%
04:00 -2°C° 0 mm 5 m/S 737 mmHg 94%
05:00 -1°C° 0 mm 5 m/S 737 mmHg 95%
06:00 -1°C° 0 mm 5 m/S 737 mmHg 96%
07:00 -1°C° 0 mm 4 m/S 737 mmHg 97%
08:00 -1°C° 0 mm 4 m/S 737 mmHg 98%
09:00 -1°C° 0 mm 4 m/S 737 mmHg 98%
10:00 -1°C° 0 mm 4 m/S 737 mmHg 98%
11:00 -1°C° 0 mm 4 m/S 738 mmHg 98%
12:00 -1°C° 0 mm 4 m/S 738 mmHg 98%
13:00 0°C° 0 mm 3 m/S 738 mmHg 98%
14:00 0°C° 0 mm 3 m/S 738 mmHg 97%
15:00 -1°C° 0 mm 3 m/S 738 mmHg 97%
16:00 -2°C° 0 mm 3 m/S 738 mmHg 96%
17:00 -4°C° 0 mm 3 m/S 739 mmHg 96%
18:00 -4°C° 0 mm 3 m/S 739 mmHg 96%
19:00 -4°C° 0 mm 3 m/S 738 mmHg 97%
20:00 -4°C° 0 mm 3 m/S 738 mmHg 97%
21:00 -2°C° 0.1 mm 3 m/S 738 mmHg 97%
22:00 -1°C° 0.1 mm 3 m/S 738 mmHg 97%
23:00 -1°C° 0.1 mm 3 m/S 738 mmHg 97%
Mehr zeigen

Wir brauchen deine Erlaubnis

Meteoprog und unser Service Anbieter werden persönliche Daten aufbewahren, so wie Cookies, Geräte Bezeichnung oder ähnliche Technologien von deinem Gerät und Prozess, so wie Persönliche Daten Inhalte und Werbungen, genauso wie social Media und den Verkehr zu analysieren.

  • Aufbewahrung und/oder Zugang zu deiner Geräte Informationen.

    Cookies, Geräte Bezeichnung oder andere Informationen, können aufbewahrt oder Zugang zu deinem Gerät erhalten, für den Grund, der oben angegeben wird.

  • Personalisierte Werbung und Inhalte, Messungen, Einblick in das Publikum und Produkt Entwicklung.

    Werbungen und Inhalte können personalisiert werden, basierend auf ein Profil. Mehr Daten können besser personalisierte Werbungen und Inhalte hinzufügen. Werbung und Inhalte können gezeigt und gemessen werden. Einblicke über das Publikum, welche die Werbung gesehen haben und den Inhalt, können abgeleitet werden. So wie Daten können genutzt werden, um es zu verbessern oder die Benutzer Erfahrung zu verbessern das System und die Software.

Wenn du “Ich stimme zu” klickst, erlaubst du uns, die Cookies zu benutzen die Geräte Bezeichnung, den Web oder ähnliche Technologien zu benutzen. Deine Settings, können in deinem Gerät bei deinem Browser geändert werden.

Für den bestimmten Zweck, berechtigten Interessen beruhen darauf, mehr als auf den Inhalt. Du kannst mehr darüber in unseren Privaten und Cookie Politik lesen.